Regional Weather Roundup
Issued by NWS

Home | Current Version | Previous Version | Graphics & Text | Print | Product List | Glossary On
Versions: 1 2 3 4 5 6 7 8 9 10 11 12 13 14 15 16 17 18 19 20 21 22 23 24 25 26 27 28 29 30 31 32 33 34 35 36 37 38 39 40 41 42 43 44 45 46 47 48 49 50
000
ASUS43 KOAX 050210
RWRNE

WEATHER ROUNDUP FOR NEBRASKA
NATIONAL WEATHER SERVICE OMAHA NE
900 PM CDT WED MAY 04 2016

NOTES: SATELLITE DATA IS BEING USED TO AUGMENT CLOUD COVER ABOVE
       12000 FEET.
       "FAIR" INDICATES FEW OR NO CLOUDS BELOW 12,000 FEET WITH NO
       SIGNIFICANT WEATHER AND/OR OBSTRUCTIONS TO VISIBILITY.

  * THESE STATIONS DO NOT REPORT WEATHER SUCH AS RAIN...SNOW OR FOG.

NEZ001>004-019>022-054>056-050300-
NEBRASKA PANHANDLE

CITY           SKY/WX    TMP DP  RH WIND       PRES   REMARKS
SCOTTSBLUFF    CLEAR     64  42  44 SE10      30.06F
ALLIANCE       CLEAR     56  43  61 SE10      30.07S
CHADRON        CLEAR     62  46  55 SE10      30.02F
KIMBALL        CLEAR     58  43  57 SE7       30.13R
SIDNEY         CLEAR     56  45  66 SE8       30.11F
$$

NEZ057>060-069>072-079>082-050300-
SOUTHWEST NEBRASKA

CITY           SKY/WX    TMP DP  RH WIND       PRES   REMARKS
NORTH PLATTE   CLEAR     58  40  51 NE6       30.07R
IMPERIAL       CLEAR     65  42  43 E6        30.08S
LEXINGTON      CLEAR     63  39  41 E3        30.06S
MCCOOK         CLEAR     62  43  49 SE8       30.06S
OGALLALA       CLEAR     65  40  39 CALM      30.07S
$$

NEZ005>010-023>029-035>040-094-050300-
NORTH CENTRAL NEBRASKA

CITY           SKY/WX    TMP DP  RH WIND       PRES   REMARKS
VALENTINE      CLEAR     62  41  46 E6        30.05F
AINSWORTH      CLEAR     60  40  48 E5        30.07S
BROKEN BOW     CLEAR     56  44  64 N3        30.06S
O`NEILL        CLEAR     60  38  45 CALM      30.06R
ORD            CLEAR     56  38  50 CALM      30.04S
THEDFORD       CLEAR     64  41  43 CALM      30.08S
$$

NEZ041-046>049-061>064-073>077-083>087-050300-
SOUTH CENTRAL NEBRASKA

CITY           SKY/WX    TMP DP  RH WIND       PRES   REMARKS
GRAND ISLAND   CLEAR     57  37  47 N7        30.05S
AURORA         CLEAR     58  32  38 NW7       30.04R
HASTINGS       CLEAR     61  35  37 N5        30.05S
HEBRON         CLEAR     61  32  33 CALM      30.03S
HOLDREGE       CLEAR     61  38  42 NE5       30.07R
KEARNEY *      CLEAR     63  36  36 NE3       30.07S
YORK           CLEAR     59  34  38 N3        30.04R
$$

NEZ011>018-030>034-042>045-050300-
NORTHEAST NEBRASKA

CITY           SKY/WX    TMP DP  RH WIND       PRES   REMARKS
NORFOLK        CLEAR     57  35  43 N6        30.03R
ALBION         CLEAR     55  37  49 CALM      30.05R
BLAIR          CLEAR     62  39  42 N7        30.00R
COLUMBUS *     CLEAR     59  30  33 NW7       30.04R
FREMONT        CLEAR     61  37  41 CALM      30.01S
TEKAMAH        CLEAR     56  46  69 NW7       30.00R
WAYNE          CLEAR     52  39  62 NW5       30.03R
$$

NEZ050>053-065>068-078-088>093-050300-
SOUTHEAST NEBRASKA

CITY           SKY/WX    TMP DP  RH WIND       PRES   REMARKS
LINCOLN        CLEAR     59  37  44 N5        30.02R
OMAHA EPPLEY   PTCLDY    59  41  51 NW3       29.99S
BEATRICE       CLEAR     55  41  60 N6        30.01S
FALLS CITY     CLEAR     60  37  42 N3        29.99R
NEBRASKA CITY  CLEAR     59  36  43 N3        30.00S
PLATTSMOUTH    CLEAR     61  40  45 N3        30.00S
$$

NEZ044-045-051>053-067-050300-
OMAHA AREA

CITY           SKY/WX    TMP DP  RH WIND       PRES   REMARKS
OMAHA EPPLEY   PTCLDY    59  41  51 NW3       29.99S
BLAIR          CLEAR     62  39  42 N7        30.00R
FREMONT        CLEAR     61  37  41 CALM      30.01S
MILLARD        CLEAR     62  39  42 CALM      30.00S
OFFUTT AFB     CLEAR     58  44  59 N5        29.99R
PLATTSMOUTH    CLEAR     61  40  45 N3        30.00S
WAHOO          FAIR      57  41  54 N5        30.01R
$$




USA.gov is the U.S. government's official web portal to all federal, state and local government web resources and services.